 day,  time,  air_temp(C),  RH(%),  ground_temp10cm(C),  ground_temp20cm(C),  ground_temp40cm(C),  precipitation(mm/h),  Solar_Radiation(MJ/m2h),  lack, 
 04/10/01, 01:00,   8.6,  99,  15.4,  16.8,  17.8,   0.0,  0.00, 
 04/10/01, 02:00,   6.8,  99,  15.1,  16.7,  17.9,   0.0,  0.00, 
 04/10/01, 03:00,   6.2,  99,  14.9,  16.7,  17.8,   0.0,  0.00, 
 04/10/01, 04:00,   7.7,  77,  14.6,  16.6,  17.7,   0.0,  0.00, 
 04/10/01, 05:00,   9.8,  43,  14.4,  16.5,  17.8,   0.0,  0.00, 
 04/10/01, 06:00,  10.7,  43,  14.1,  16.4,  17.8,   0.0,  0.00, 
 04/10/01, 07:00,  11.0,  48,  13.9,  16.2,  17.8,   0.0,  0.26, 
 04/10/01, 08:00,  13.2,  47,  13.8,  16.1,  17.7,   0.0,  1.11, 
 04/10/01, 09:00,  15.4,  56,  13.7,  16.0,  17.7,   0.0,  1.84, 
 04/10/01, 10:00,  17.0,  64,  13.8,  15.9,  17.7,   0.0,  2.38, 
 04/10/01, 11:00,  19.5,  65,  14.4,  15.8,  17.7,   0.0,  2.77, 
 04/10/01, 12:00,  19.1,  61,  15.3,  15.7,  17.7,   0.0,  2.92, 
 04/10/01, 13:00,  20.3,  55,  16.4,  15.8,  17.6,   0.0,  2.90, 
 04/10/01, 14:00,  20.1,  58,  17.2,  15.9,  17.6,   0.0,  2.58, 
 04/10/01, 15:00,  18.5,  66,  17.5,  16.0,  17.6,   0.0,  2.09, 
 04/10/01, 16:00,  17.0,  71,  17.6,  16.2,  17.5,   0.0,  1.35, 
 04/10/01, 17:00,  15.8,  76,  17.5,  16.4,  17.5,   0.0,  0.63, 
 04/10/01, 18:00,  14.1,  87,  17.3,  16.6,  17.5,   0.0,  0.08, 
 04/10/01, 19:00,  13.1,  90,  17.1,  16.7,  17.5,   0.0,  0.00, 
 04/10/01, 20:00,  11.2,  96,  16.8,  16.8,  17.4,   0.0,  0.00, 
 04/10/01, 21:00,  12.3,  88,  16.5,  16.8,  17.4,   0.0,  0.00, 
 04/10/01, 22:00,  11.8,  92,  16.4,  16.9,  17.4,   0.0,  0.00, 
 04/10/01, 23:00,  12.1,  86,  16.0,  16.8,  17.4,   0.0,  0.00, 
 04/10/02, 00:00,  11.9,  92,  15.8,  16.8,  17.3,   0.0,  0.00, 
 04/10/02, 01:00,  12.8,  82,  15.7,  16.7,  17.4,   0.0,  0.00, 
 04/10/02, 02:00,  12.2,  88,  15.6,  16.7,  17.4,   0.0,  0.00, 
 04/10/02, 03:00,  13.3,  80,  15.5,  16.6,  17.4,   0.0,  0.00, 
 04/10/02, 04:00,  13.1,  88,  15.4,  16.6,  17.3,   0.0,  0.00, 
 04/10/02, 05:00,  13.2,  91,  15.4,  16.5,  17.2,   0.0,  0.00, 
 04/10/02, 06:00,  13.1,  92,  15.3,  16.4,  17.2,   0.0,  0.00, 
 04/10/02, 07:00,  13.6,  92,  15.3,  16.4,  17.3,   0.0,  0.10, 
 04/10/02, 08:00,  15.2,  89,  15.2,  16.3,  17.2,   0.0,  0.42, 
 04/10/02, 09:00,  15.2,  88,  15.3,  16.3,  17.4,   0.0,  0.51, 
 04/10/02, 10:00,  16.8,  83,  15.5,  16.3,  17.2,   0.0,  1.70, 
 04/10/02, 11:00,  15.6,  94,  15.9,  16.2,  17.2,   0.0,  0.76, 
 04/10/02, 12:00,  14.5,  99,  16.2,  16.3,  17.3,   0.0,  0.40, 
 04/10/02, 13:00,  15.1,  96,  16.3,  16.3,  17.2,   0.0,  0.31, 
 04/10/02, 14:00,  14.3,  99,  16.4,  16.3,  17.2,   0.0,  0.26, 
 04/10/02, 15:00,  14.8,  99,  16.4,  16.4,  17.2,   0.0,  0.34, 
 04/10/02, 16:00,  14.5,  99,  16.5,  16.4,  17.3,   0.0,  0.06, 
 04/10/02, 17:00,  14.4,  99,  16.5,  16.5,  17.3,   0.0,  0.01, 
 04/10/02, 18:00,  14.1,  99,  16.5,  16.5,  17.2,   0.0,  0.00, 
 04/10/02, 19:00,  13.8,  99,  16.4,  16.5,  17.1,   0.0,  0.00, 
 04/10/02, 20:00,  13.7,  99,  16.3,  16.6,  17.3,   0.0,  0.00, 
 04/10/02, 21:00,  13.1,  99,  16.3,  16.6,  17.3,   0.0,  0.00, 
 04/10/02, 22:00,  11.9,  99,  16.2,  16.6,  17.3,   0.0,  0.00, 
 04/10/02, 23:00,  11.4,  99,  16.1,  16.6,  17.0,   0.0,  0.00, 
 04/10/03, 00:00,  11.4,  99,  16.0,  16.6,  17.1,   0.0,  0.00, 
 04/10/03, 01:00,  10.8,  99,  15.9,  16.5,  17.2,   0.0,  0.00, 
 04/10/03, 02:00,  10.1,  99,  15.8,  16.5,  17.2,   0.0,  0.00, 
 04/10/03, 03:00,   9.6,  99,  15.7,  16.5,  17.2,   0.0,  0.00, 
 04/10/03, 04:00,   9.3,  99,  15.6,  16.5,  17.0,   0.0,  0.00, 
 04/10/03, 05:00,   8.9,  99,  15.4,  16.4,  17.0,   0.0,  0.00, 
 04/10/03, 06:00,   8.5,  99,  15.3,  16.4,  17.0,   0.0,  0.00, 
 04/10/03, 07:00,   8.8,  99,  15.2,  16.3,  17.2,   0.0,  0.01, 
 04/10/03, 08:00,   8.9,  99,  15.1,  16.3,  17.1,   0.0,  0.18, 
 04/10/03, 09:00,   9.7,  99,  15.0,  16.2,  17.2,   0.5,  0.48, 
 04/10/03, 10:00,   9.3,  99,  15.0,  16.1,  17.0,   0.0,  0.47, 
 04/10/03, 11:00,   9.5,  99,  15.0,  16.1,  17.0,   0.0,  0.28, 
 04/10/03, 12:00,  10.0,  99,  15.0,  16.0,  17.1,   0.5,  0.28, 
 04/10/03, 13:00,  10.4,  99,  15.0,  16.0,  17.0,   3.0,  0.25, 
 04/10/03, 14:00,  10.3,  99,  14.9,  16.0,  16.9,   2.0,  0.20, 
 04/10/03, 15:00,  10.3,  99,  14.9,  15.9,  16.9,   3.0,  0.18, 
 04/10/03, 16:00,  11.3,  99,  14.8,  15.9,  16.9,   1.5,  0.30, 
 04/10/03, 17:00,  10.5,  99,  14.8,  15.8,  16.9,   0.0,  0.10, 
 04/10/03, 18:00,  10.5,  99,  14.8,  15.8,  17.1,   0.0,  0.00, 
 04/10/03, 19:00,  10.3,  99,  14.7,  15.7,  16.9,   0.0,  0.00, 
 04/10/03, 20:00,  10.4,  99,  14.7,  15.7,  16.9,   0.5,  0.00, 
 04/10/03, 21:00,  10.2,  99,  14.6,  15.7,  17.0,   0.0,  0.00, 
 04/10/03, 22:00,  10.3,  99,  14.5,  15.6,  16.9,   0.5,  0.00, 
 04/10/03, 23:00,  10.1,  99,  14.5,  15.6,  16.8,   0.0,  0.00, 
 04/10/04, 00:00,   9.9,  99,  14.4,  15.6,  16.8,   1.0,  0.00, 
 04/10/04, 01:00,   9.8,  99,  14.4,  15.5,  16.8,   0.0,  0.00, 
 04/10/04, 02:00,   9.9,  99,  14.3,  15.5,  16.8,   0.0,  0.00, 
 04/10/04, 03:00,   9.8,  99,  14.2,  15.5,  16.8,   0.0,  0.00, 
 04/10/04, 04:00,   9.7,  99,  14.2,  15.4,  16.7,   0.5,  0.00, 
 04/10/04, 05:00,   9.7,  99,  14.1,  15.4,  16.8,   0.0,  0.00, 
 04/10/04, 06:00,   9.7,  99,  14.1,  15.3,  16.8,   0.0,  0.00, 
 04/10/04, 07:00,  10.0,  99,  14.0,  15.3,  16.8,   0.5,  0.06, 
 04/10/04, 08:00,   9.9,  99,  14.0,  15.2,  16.7,   0.0,  0.18, 
 04/10/04, 09:00,  10.5,  99,  14.0,  15.2,  16.8,   0.0,  0.43, 
 04/10/04, 10:00,  11.0,  99,  14.1,  15.2,  16.7,   0.0,  0.60, 
 04/10/04, 11:00,  11.4,  99,  14.2,  15.1,  16.7,   0.0,  0.94, 
 04/10/04, 12:00,  12.2,  99,  14.4,  15.1,  16.7,   0.0,  0.97, 
 04/10/04, 13:00,  12.5,  99,  14.7,  15.1,  16.7,   0.0,  0.84, 
 04/10/04, 14:00,  12.3,  99,  14.9,  15.1,  16.7,   0.0,  0.65, 
 04/10/04, 15:00,  12.0,  99,  15.1,  15.2,  16.6,   0.0,  0.31, 
 04/10/04, 16:00,  12.1,  99,  15.1,  15.2,  16.6,   0.0,  0.24, 
 04/10/04, 17:00,  12.1,  99,  15.2,  15.3,  16.6,   0.0,  0.13, 
 04/10/04, 18:00,  11.8,  99,  15.2,  15.3,  16.6,   0.0,  0.00, 
 04/10/04, 19:00,  11.7,  99,  15.1,  15.4,  16.6,   0.0,  0.00, 
 04/10/04, 20:00,  11.6,  99,  15.1,  15.4,  16.5,   0.5,  0.00, 
 04/10/04, 21:00,  11.7,  99,  15.0,  15.4,  16.5,   0.0,  0.00, 
 04/10/04, 22:00,  11.6,  99,  14.9,  15.4,  16.5,   0.0,  0.00, 
 04/10/04, 23:00,  11.3,  99,  14.9,  15.4,  16.5,   0.0,  0.00, 
 04/10/05, 00:00,  11.4,  99,  14.8,  15.4,  16.5,   0.0,  0.00, 
 04/10/05, 01:00,  11.3,  99,  14.8,  15.4,  16.4,   0.0,  0.00, 
 04/10/05, 02:00,  11.4,  99,  14.7,  15.4,  16.5,   0.0,  0.00, 
 04/10/05, 03:00,  11.2,  99,  14.7,  15.4,  16.4,   0.0,  0.00, 
 04/10/05, 04:00,  11.2,  99,  14.6,  15.4,  16.4,   0.0,  0.00, 
 04/10/05, 05:00,  11.0,  99,  14.5,  15.4,  16.4,   2.5,  0.00, 
 04/10/05, 06:00,  10.9,  99,  14.4,  15.3,  16.4,   6.0,  0.00, 
 04/10/05, 07:00,  11.2,  99,  14.2,  15.2,  16.4,   4.5,  0.00, 
 04/10/05, 08:00,  10.9,  99,  14.0,  15.2,  16.4,   3.5,  0.03, 
 04/10/05, 09:00,  11.1,  99,  13.9,  15.1,  16.4,   3.0,  0.15, 
 04/10/05, 10:00,  11.6,  99,  13.8,  15.0,  16.4,   2.5,  0.22, 
 04/10/05, 11:00,  11.4,  99,  13.8,  14.9,  16.3,   1.0,  0.26, 
 04/10/05, 12:00,  11.5,  99,  13.9,  14.8,  16.3,   2.0,  0.19, 
 04/10/05, 13:00,  11.4,  99,  13.9,  14.8,  16.3,   3.0,  0.24, 
 04/10/05, 14:00,  11.3,  99,  13.9,  14.7,  16.2,   3.0,  0.11, 
 04/10/05, 15:00,  11.6,  99,  13.9,  14.7,  16.2,   2.5,  0.22, 
 04/10/05, 16:00,  11.6,  99,  13.9,  14.6,  16.1,   0.5,  0.19, 
 04/10/05, 17:00,  11.4,  99,  13.9,  14.6,  16.1,   0.5,  0.00, 
 04/10/05, 18:00,  11.3,  99,  13.9,  14.6,  16.1,   3.0,  0.00, 
 04/10/05, 19:00,  11.0,  99,  13.8,  14.6,  15.9,   4.0,  0.00, 
 04/10/05, 20:00,  10.9,  99,  13.7,  14.5,  15.8,   1.0,  0.00, 
 04/10/05, 21:00,  11.7,  95,  13.6,  14.5,  15.9,   1.0,  0.00, 
 04/10/05, 22:00,  11.1,  99,  13.6,  14.5,  16.0,   0.0,  0.00, 
 04/10/05, 23:00,  10.9,  99,  13.5,  14.4,  15.8,   0.0,  0.00, 
 04/10/06, 00:00,  10.7,  99,  13.5,  14.4,  15.8,   0.0,  0.00, 
 04/10/06, 01:00,  10.7,  99,  13.5,  14.4,  15.7,   0.0,  0.00, 
 04/10/06, 02:00,  10.1,  99,  13.5,  14.4,  15.9,   0.0,  0.00, 
 04/10/06, 03:00,  10.6,  99,  13.4,  14.4,  15.8,   0.0,  0.00, 
 04/10/06, 04:00,   9.2,  99,  13.3,  14.3,  15.7,   6.5,  0.00, 
 04/10/06, 05:00,   9.0,  99,  13.2,  14.3,  15.7,   0.0,  0.00, 
 04/10/06, 06:00,   8.1,  99,  13.1,  14.2,  15.7,   0.0,  0.00, 
 04/10/06, 07:00,   8.5,  99,  12.9,  14.2,  15.7,   0.0,  0.06, 
 04/10/06, 08:00,   8.9,  99,  12.8,  14.1,  15.7,   0.0,  0.33, 
 04/10/06, 09:00,  10.0,  99,  12.8,  14.1,  15.7,   0.0,  0.74, 
 04/10/06, 10:00,  10.5,  99,  12.9,  14.0,  15.5,   0.0,  0.68, 
 04/10/06, 11:00,  11.3,  96,  13.2,  14.0,  15.7,   0.0,  1.43, 
 04/10/06, 12:00,  12.5,  90,  13.5,  14.0,  15.7,   0.0,  1.12, 
 04/10/06, 13:00,  12.5,  88,  13.8,  14.0,  15.6,   0.0,  1.00, 
 04/10/06, 14:00,  13.1,  89,  14.0,  14.0,  15.7,   0.0,  2.42, 
 04/10/06, 15:00,  12.5,  87,  14.4,  14.1,  15.6,   0.0,  1.71, 
 04/10/06, 16:00,  12.1,  90,  14.5,  14.2,  15.6,   0.0,  1.00, 
 04/10/06, 17:00,  11.2,  96,  14.5,  14.3,  15.6,   0.0,  0.50, 
 04/10/06, 18:00,  10.0,  98,  14.5,  14.4,  15.6,   0.0,  0.03, 
 04/10/06, 19:00,   8.8,  99,  14.4,  14.4,  15.6,   0.0,  0.00, 
 04/10/06, 20:00,   9.3,  99,  14.2,  14.5,  15.5,   0.0,  0.00, 
 04/10/06, 21:00,   8.0,  99,  14.0,  14.5,  15.6,   0.0,  0.00, 
 04/10/06, 22:00,   8.3,  99,  13.8,  14.5,  15.5,   0.0,  0.00, 
 04/10/06, 23:00,   7.2,  99,  13.6,  14.5,  15.5,   0.0,  0.00, 
 04/10/07, 00:00,   6.4,  99,  13.4,  14.5,  15.6,   0.0,  0.00, 
 04/10/07, 01:00,   8.5,  88,  13.1,  14.4,  15.5,   0.0,  0.00, 
 04/10/07, 02:00,   9.5,  88,  12.9,  14.4,  15.5,   0.0,  0.00, 
 04/10/07, 03:00,   9.9,  89,  12.8,  14.3,  15.5,   0.0,  0.00, 
 04/10/07, 04:00,   9.1,  97,  12.5,  14.2,  15.4,   0.0,  0.00, 
 04/10/07, 05:00,   9.3,  99,  12.5,  14.1,  15.6,   0.0,  0.00, 
 04/10/07, 06:00,   8.8,  99,  12.3,  14.1,  15.4,   0.0,  0.00, 
 04/10/07, 07:00,  10.6,  99,  12.3,  14.0,  15.6,   0.0,  0.19, 
 04/10/07, 08:00,  12.6,  95,  12.2,  13.9,  15.5,   0.0,  0.60, 
 04/10/07, 09:00,  14.0,  85,  12.4,  13.8,  15.5,   0.0,  1.43, 
 04/10/07, 10:00,  14.6,  82,  12.7,  13.8,  15.5,   0.0,  1.73, 
 04/10/07, 11:00,  13.8,  91,  13.2,  13.8,  15.5,   0.0,  1.68, 
 04/10/07, 12:00,  14.6,  87,  13.6,  13.8,  15.4,   0.0,  1.20, 
 04/10/07, 13:00,  15.4,  82,  14.0,  13.8,  15.5,   0.0,  1.43, 
 04/10/07, 14:00,  17.3,  73,  14.5,  13.9,  15.4,   0.0,  1.95, 
 04/10/07, 15:00,  16.3,  74,  14.8,  14.0,  15.5,   0.0,  1.91, 
 04/10/07, 16:00,  15.1,  78,  14.9,  14.1,  15.4,   0.0,  1.15, 
 04/10/07, 17:00,  13.9,  87,  14.9,  14.3,  15.4,   0.0,  0.31, 
 04/10/07, 18:00,  12.6,  94,  14.9,  14.4,  15.4,   0.0,  0.02, 
 04/10/07, 19:00,  12.6,  96,  14.8,  14.5,  15.4,   0.0,  0.00, 
 04/10/07, 20:00,  12.0,  99,  14.6,  14.5,  15.4,   0.0,  0.00, 
 04/10/07, 21:00,  11.7,  99,  14.5,  14.6,  15.4,   0.0,  0.00, 
 04/10/07, 22:00,  11.7,  99,  14.4,  14.6,  15.3,   0.0,  0.00, 
 04/10/07, 23:00,  11.4,  99,  14.3,  14.6,  15.3,   0.0,  0.00, 
 04/10/08, 00:00,  11.4,  99,  14.2,  14.6,  15.3,   0.0,  0.00, 
 04/10/08, 01:00,  11.1,  99,  14.1,  14.6,  15.2,   0.0,  0.00, 
 04/10/08, 02:00,  10.1,  99,  14.1,  14.6,  15.3,   0.0,  0.00, 
 04/10/08, 03:00,  10.0,  99,  13.9,  14.6,  15.4,   0.0,  0.00, 
 04/10/08, 04:00,  10.3,  99,  13.8,  14.6,  15.4,   0.0,  0.00, 
 04/10/08, 05:00,  10.6,  99,  13.7,  14.5,  15.4,   0.0,  0.00, 
 04/10/08, 06:00,   9.9,  99,  13.6,  14.5,  15.4,   0.0,  0.00, 
 04/10/08, 07:00,  11.2,  96,  13.5,  14.5,  15.3,   0.0,  0.00, 
 04/10/08, 08:00,  11.0,  99,  13.4,  14.4,  15.3,   0.0,  0.15, 
 04/10/08, 09:00,  11.5,  99,  13.5,  14.4,  15.4,   0.0,  0.23, 
 04/10/08, 10:00,  12.2,  94,  13.5,  14.3,  15.4,   0.0,  0.42, 
 04/10/08, 11:00,  12.8,  99,  13.6,  14.3,  15.4,   0.0,  0.81, 
 04/10/08, 12:00,  11.8,  99,  13.8,  14.3,  15.4,   0.0,  0.53, 
 04/10/08, 13:00,  11.2,  99,  13.9,  14.3,  15.4,   0.0,  0.12, 
 04/10/08, 14:00,  10.9,  99,  13.9,  14.3,  15.4,   1.0,  0.22, 
 04/10/08, 15:00,  10.8,  99,  13.9,  14.3,  15.4,   0.0,  0.20, 
 04/10/08, 16:00,  10.9,  99,  13.9,  14.3,  15.4,   2.5,  0.15, 
 04/10/08, 17:00,  10.9,  99,  13.9,  14.3,  15.4,   5.0,  0.00, 
 04/10/08, 18:00,  10.5,  99,  13.7,  14.3,  15.3,   5.5,  0.00, 
 04/10/08, 19:00,  10.6,  99,  13.6,  14.3,  15.4,   6.5,  0.00, 
 04/10/08, 20:00,  10.6,  99,  13.3,  14.2,  15.1,   6.0,  0.00, 
 04/10/08, 21:00,  10.6,  99,  13.2,  14.1,  15.2,   4.0,  0.00, 
 04/10/08, 22:00,  10.7,  99,  13.0,  14.0,  15.3,   6.5,  0.00, 
 04/10/08, 23:00,  11.6,  99,  12.8,  13.9,  15.1,   8.5,  0.00, 
 04/10/09, 00:00,  11.2,  99,  12.7,  13.8,  15.2,   5.5,  0.00, 
 04/10/09, 01:00,  11.1,  99,  12.6,  13.7,  15.0,   2.0,  0.00, 
 04/10/09, 02:00,  11.8,  99,  12.6,  13.6,  15.1,   4.5,  0.00, 
 04/10/09, 03:00,  11.3,  99,  12.5,  13.5,  14.9,   5.5,  0.00, 
 04/10/09, 04:00,  12.1,  99,  12.5,  13.4,  14.8,   9.0,  0.00, 
 04/10/09, 05:00,  12.1,  99,  12.5,  13.3,  14.8,   2.0,  0.00, 
 04/10/09, 06:00,  12.2,  99,  12.5,  13.3,  14.8,   0.0,  0.00, 
 04/10/09, 07:00,  12.7,  99,  12.6,  13.2,  14.9,   0.0,  0.03, 
 04/10/09, 08:00,  13.3,  99,  12.7,  13.2,  14.8,   0.5,  0.15, 
 04/10/09, 09:00,  14.4,  99,  12.8,  13.2,  14.8,   1.5,  0.29, 
 04/10/09, 10:00,  15.1,  99,  12.9,  13.2,  14.7,   1.0,  0.36, 
 04/10/09, 11:00,  15.8,  99,  13.1,  13.3,  14.7,   1.5,  0.28, 
 04/10/09, 12:00,  15.7,  99,  13.4,  13.3,  14.7,   1.5,  0.35, 
 04/10/09, 13:00,  16.2,  99,  13.6,  13.3,  14.7,   4.0,  0.14, 
 04/10/09, 14:00,  15.9,  99,  13.8,  13.4,  14.7,   4.5,  0.19, 
 04/10/09, 15:00,  16.8,  97,  14.0,  13.4,  14.7,   3.0,  0.20, 
 04/10/09, 16:00,  17.0,  99,  14.2,  13.5,  14.5,   2.0,  0.04, 
 04/10/09, 17:00,  14.5,  99,  14.3,  13.6,  14.5,   1.0,  0.06, 
 04/10/09, 18:00,  15.0,  99,  14.3,  13.7,  14.6,   0.0,  0.01, 
 04/10/09, 19:00,  15.1,  99,  14.3,  13.8,  14.5,   0.0,  0.00, 
 04/10/09, 20:00,  15.2,  99,  14.2,  13.8,  14.5,   0.5,  0.00, 
 04/10/09, 21:00,  14.9,  99,  14.3,  13.9,  14.5,   0.0,  0.00, 
 04/10/09, 22:00,  14.7,  99,  14.3,  13.9,  14.5,   0.0,  0.00, 
 04/10/09, 23:00,  14.7,  99,  14.3,  14.0,  14.5,   0.0,  0.00, 
 04/10/10, 00:00,  14.9,  99,  14.3,  14.0,  14.5,   0.0,  0.00, 
 04/10/10, 01:00,  15.4,  99,  14.3,  14.1,  14.5,   1.0,  0.00, 
 04/10/10, 02:00,  15.7,  99,  14.3,  14.1,  14.5,   0.0,  0.00, 
 04/10/10, 03:00,  15.6,  99,  14.3,  14.1,  14.5,   0.0,  0.00, 
 04/10/10, 04:00,  15.3,  99,  14.3,  14.1,  14.5,   0.5,  0.00, 
 04/10/10, 05:00,  15.0,  99,  14.4,  14.2,  14.5,   3.5,  0.00, 
 04/10/10, 06:00,  14.8,  99,  14.4,  14.2,  14.5,   0.0,  0.00, 
 04/10/10, 07:00,  14.7,  99,  14.4,  14.2,  14.6,   0.0,  0.05, 
 04/10/10, 08:00,  15.7,  99,  14.4,  14.2,  14.6,   0.0,  0.92, 
 04/10/10, 09:00,  17.2,  93,  14.5,  14.3,  14.7,   0.0,  1.80, 
 04/10/10, 10:00,  17.7,  88,  14.7,  14.3,  14.6,   0.0,  1.83, 
 04/10/10, 11:00,  18.4,  74,  15.0,  14.3,  14.6,   0.0,  2.21, 
 04/10/10, 12:00,  19.0,  72,  15.6,  14.4,  14.7,   0.0,  2.59, 
 04/10/10, 13:00,  16.9,  82,  16.2,  14.5,  14.9,   0.0,  1.25, 
 04/10/10, 14:00,  17.1,  82,  16.6,  14.6,  14.9,   0.0,  1.25, 
 04/10/10, 15:00,  17.2,  83,  16.7,  14.8,  14.9,   0.0,  1.35, 
 04/10/10, 16:00,  16.3,  86,  16.8,  14.9,  14.9,   0.0,  0.53, 
 04/10/10, 17:00,  16.0,  86,  16.6,  15.1,  14.6,   0.0,  0.24, 
 04/10/10, 18:00,  15.4,  81,  16.6,  15.2,  14.8,   0.0,  0.01, 
 04/10/10, 19:00,  15.0,  81,  16.3,  15.3,  14.9,   0.0,  0.00, 
 04/10/10, 20:00,  14.3,  89,  16.1,  15.4,  14.9,   0.0,  0.00, 
 04/10/10, 21:00,  14.8,  84,  15.9,  15.4,  14.9,   0.0,  0.00, 
 04/10/10, 22:00,  14.9,  79,  15.7,  15.4,  14.8,   0.0,  0.00, 
 04/10/10, 23:00,  14.3,  84,  15.5,  15.4,  14.9,   0.0,  0.00, 
 04/10/11, 00:00,  14.6,  78,  15.3,  15.4,  14.9,   0.0,  0.00, 
 04/10/11, 01:00,  14.5,  84,  15.2,  15.4,  14.8,   0.0,  0.00, 
 04/10/11, 02:00,  14.4,  82,  15.0,  15.3,  15.0,   0.0,  0.00, 
 04/10/11, 03:00,  14.6,  78,  14.9,  15.3,  14.9,   0.0,  0.00, 
 04/10/11, 04:00,  13.7,  84,  14.8,  15.2,  15.1,   0.0,  0.00, 
 04/10/11, 05:00,  14.0,  82,  14.7,  15.2,  15.1,   0.0,  0.00, 
 04/10/11, 06:00,  13.1,  90,  14.6,  15.1,  15.0,   0.0,  0.00, 
 04/10/11, 07:00,  13.6,  92,  14.5,  15.1,  15.2,   0.0,  0.08, 
 04/10/11, 08:00,  13.5,  95,  14.5,  15.1,  15.1,   0.0,  0.23, 
 04/10/11, 09:00,  14.7,  90,  14.5,  15.0,  15.2,   0.0,  0.72, 
 04/10/11, 10:00,  15.3,  96,  14.6,  15.0,  15.2,   0.0,  0.70, 
 04/10/11, 11:00,  17.2,  84,  14.9,  14.9,  15.2,   0.0,  2.20, 
 04/10/11, 12:00,  16.4,  84,  15.4,  14.9,  15.2,   0.0,  0.93, 
 04/10/11, 13:00,  16.1,  89,  15.7,  15.0,  15.2,   0.0,  1.17, 
 04/10/11, 14:00,  15.2,  91,  16.0,  15.0,  15.2,   0.0,  0.41, 
 04/10/11, 15:00,  15.7,  88,  16.1,  15.1,  15.1,   0.0,  0.91, 
 04/10/11, 16:00,  15.3,  99,  16.2,  15.2,  15.1,   0.0,  0.35, 
 04/10/11, 17:00,  14.2,  99,  16.3,  15.3,  15.2,   0.0,  0.04, 
 04/10/11, 18:00,  13.8,  99,  16.2,  15.4,  15.3,   0.0,  0.00, 
 04/10/11, 19:00,  13.3,  99,  16.1,  15.4,  15.3,   0.0,  0.00, 
 04/10/11, 20:00,  13.3,  99,  16.0,  15.5,  15.2,   0.0,  0.00, 
 04/10/11, 21:00,  12.6,  99,  15.9,  15.5,  15.3,   0.0,  0.00, 
 04/10/11, 22:00,  12.3,  99,  15.8,  15.5,  15.2,   0.0,  0.00, 
 04/10/11, 23:00,  12.0,  99,  15.6,  15.5,  15.1,   0.0,  0.00, 
 04/10/12, 00:00,  11.3,  99,  15.5,  15.5,  15.1,   0.0,  0.00, 
 04/10/12, 01:00,  10.9,  99,  15.3,  15.5,  15.1,   0.0,  0.00, 
 04/10/12, 02:00,  10.8,  99,  15.1,  15.5,  15.3,   0.0,  0.00, 
 04/10/12, 03:00,  10.6,  99,  14.9,  15.4,  15.2,   0.0,  0.00, 
 04/10/12, 04:00,  11.1,  99,  14.7,  15.4,  15.2,   0.0,  0.00, 
 04/10/12, 05:00,  10.8,  99,  14.5,  15.3,  15.2,   0.0,  0.00, 
 04/10/12, 06:00,  10.3,  99,  14.4,  15.3,  15.3,   0.0,  0.00, 
 04/10/12, 07:00,  10.9,  98,  14.2,  15.2,  15.3,   0.0,  0.02, 
 04/10/12, 08:00,  12.8,  94,  14.0,  15.1,  15.4,   0.0,  0.49, 
 04/10/12, 09:00,  14.3,  91,  14.0,  15.0,  15.2,   0.0,  0.72, 
 04/10/12, 10:00,  17.7,  79,  14.1,  15.0,  15.4,   0.0,  2.51, 
 04/10/12, 11:00,  17.2,  78,  14.7,  14.9,  15.4,   0.0,  2.93, 
 04/10/12, 12:00,  16.8,  76,  15.6,  14.9,  15.3,   0.0,  2.43, 
 04/10/12, 13:00,  18.0,  71,  16.2,  14.9,  15.2,   0.0,  1.97, 
 04/10/12, 14:00,  17.0,  73,  16.7,  15.0,  15.3,   0.0,  1.51, 
 04/10/12, 15:00,  16.4,  81,  16.9,  15.2,  15.4,   0.0,  0.93, 
 04/10/12, 16:00,  15.1,  84,  17.0,  15.3,  15.3,   0.0,  0.57, 
 04/10/12, 17:00,  14.2,  90,  17.0,  15.5,  15.4,   0.0,  0.22, 
 04/10/12, 18:00,  13.3,  96,  16.8,  15.6,  15.4,   0.0,  0.00, 
 04/10/12, 19:00,  13.0,  96,  16.6,  15.7,  15.4,   0.0,  0.00, 
 04/10/12, 20:00,  12.6,  99,  16.4,  15.8,  15.3,   0.0,  0.00, 
 04/10/12, 21:00,  12.5,  99,  16.2,  15.8,  15.3,   0.0,  0.00, 
 04/10/12, 22:00,  11.6,  99,  16.1,  15.8,  15.4,   0.0,  0.00, 
 04/10/12, 23:00,  11.8,  99,  15.9,  15.8,  15.5,   0.0,  0.00, 
 04/10/13, 00:00,  12.0,  99,  15.7,  15.8,  15.4,   0.0,  0.00, 
 04/10/13, 01:00,  12.0,  99,  15.6,  15.8,  15.5,   0.0,  0.00, 
 04/10/13, 02:00,  11.4,  99,  15.4,  15.8,  15.5,   0.0,  0.00, 
 04/10/13, 03:00,  10.5,  98,  15.3,  15.7,  15.4,   0.0,  0.00, 
 04/10/13, 04:00,  10.8,  89,  15.1,  15.7,  15.3,   0.0,  0.00, 
 04/10/13, 05:00,  10.5,  90,  15.0,  15.6,  15.3,   0.0,  0.00, 
 04/10/13, 06:00,  10.5,  75,  14.8,  15.6,  15.5,   0.0,  0.00, 
 04/10/13, 07:00,   9.7,  84,  14.6,  15.5,  15.6,   0.0,  0.03, 
 04/10/13, 08:00,   9.6,  97,  14.5,  15.4,  15.4,   0.0,  0.23, 
 04/10/13, 09:00,   9.1,  99,  14.4,  15.4,  15.4,   0.0,  0.09, 
 04/10/13, 10:00,  10.0,  94,  14.3,  15.3,  15.6,   0.0,  0.40, 
 04/10/13, 11:00,  11.1,  91,  14.3,  15.2,  15.6,   0.0,  1.29, 
 04/10/13, 12:00,  10.0,  99,  14.5,  15.2,  15.5,   0.0,  0.42, 
 04/10/13, 13:00,   8.7,  99,  14.6,  15.1,  15.6,   0.0,  0.13, 
 04/10/13, 14:00,   8.3,  99,  14.5,  15.1,  15.4,   0.0,  0.19, 
 04/10/13, 15:00,   8.1,  99,  14.4,  15.1,  15.6,   0.0,  0.15, 
 04/10/13, 16:00,   7.5,  99,  14.3,  15.0,  15.5,   0.0,  0.09, 
 04/10/13, 17:00,   6.9,  99,  14.2,  15.0,  15.6,   0.0,  0.00, 
 04/10/13, 18:00,   6.8,  99,  14.1,  15.0,  15.6,   0.0,  0.00, 
 04/10/13, 19:00,   6.4,  99,  14.0,  14.9,  15.5,   0.0,  0.00, 
 04/10/13, 20:00,   5.9,  99,  13.8,  14.9,  15.6,   0.0,  0.00, 
 04/10/13, 21:00,   6.1,  99,  13.7,  14.8,  15.5,   0.0,  0.00, 
 04/10/13, 22:00,   5.9,  99,  13.5,  14.8,  15.5,   0.0,  0.00, 
 04/10/13, 23:00,   5.8,  99,  13.4,  14.7,  15.4,   0.0,  0.00, 
 04/10/14, 00:00,   5.7,  99,  13.3,  14.6,  15.4,   0.0,  0.00, 
 04/10/14, 01:00,   6.0,  99,  13.1,  14.6,  15.5,   0.0,  0.00, 
 04/10/14, 02:00,   5.7,  99,  13.0,  14.5,  15.5,   0.0,  0.00, 
 04/10/14, 03:00,   5.9,  99,  12.9,  14.4,  15.4,   0.0,  0.00, 
 04/10/14, 04:00,   5.6,  99,  12.8,  14.3,  15.4,   0.0,  0.00, 
 04/10/14, 05:00,   5.6,  99,  12.6,  14.3,  15.5,   0.0,  0.00, 
 04/10/14, 06:00,   5.6,  99,  12.5,  14.2,  15.4,   0.0,  0.00, 
 04/10/14, 07:00,   5.7,  99,  12.4,  14.1,  15.3,   0.0,  0.11, 
 04/10/14, 08:00,   6.7,  99,  12.4,  14.0,  15.4,   0.0,  0.85, 
 04/10/14, 09:00,   7.9,  99,  12.4,  14.0,  15.4,   0.0,  1.56, 
 04/10/14, 10:00,   8.6,  86,  12.4,  13.9,  15.4,   0.0,  2.17, 
 04/10/14, 11:00,  10.0,  68,  12.8,  13.8,  15.4,   0.0,  2.65, 
 04/10/14, 12:00,  12.7,  63,  13.5,  13.8,  15.3,   0.0,  2.56, 
 04/10/14, 13:00,  12.2,  59,  14.2,  13.8,  15.2,   0.0,  2.09, 
 04/10/14, 14:00,  13.7,  52,  14.6,  13.9,  15.3,   0.0,  2.51, 
 04/10/14, 15:00,  11.9,  66,  14.9,  14.0,  15.3,   0.0,  1.98, 
 04/10/14, 16:00,   9.7,  74,  14.8,  14.1,  15.2,   0.0,  0.70, 
 04/10/14, 17:00,   8.6,  73,  14.7,  14.3,  15.2,   0.0,  0.35, 
 04/10/14, 18:00,   5.4,  99,  14.5,  14.4,  15.1,   0.0,  0.00, 
 04/10/14, 19:00,   3.5,  99,  14.3,  14.4,  15.2,   0.5,  0.00, 
 04/10/14, 20:00,   3.1,  99,  13.7,  14.5,  15.0,   2.5,  0.00, 
 04/10/14, 21:00,   3.1,  95,  13.3,  14.5,  15.0,   0.5,  0.00, 
 04/10/14, 22:00,   3.4,  94,  13.0,  14.4,  15.2,   0.0,  0.00, 
 04/10/14, 23:00,   2.9,  98,  12.6,  14.3,  15.0,   0.0,  0.00, 
 04/10/15, 00:00,   3.2,  94,  12.3,  14.2,  15.1,   0.0,  0.00, 
 04/10/15, 01:00,   3.0,  99,  12.1,  14.1,  15.1,   0.0,  0.00, 
 04/10/15, 02:00,   2.8,  99,  11.9,  14.0,  14.9,   1.0,  0.00, 
 04/10/15, 03:00,   2.9,  99,  11.7,  13.9,  15.1,   0.0,  0.00, 
 04/10/15, 04:00,   2.4,  99,  11.5,  13.8,  15.1,   1.5,  0.00, 
 04/10/15, 05:00,   2.5,  99,  11.4,  13.6,  15.1,   0.5,  0.00, 
 04/10/15, 06:00,   2.4,  99,  11.1,  13.5,  15.0,   1.5,  0.00, 
 04/10/15, 07:00,   2.8,  99,  11.0,  13.4,  15.1,   0.5,  0.00, 
 04/10/15, 08:00,   3.1,  99,  10.7,  13.2,  15.0,   0.5,  0.09, 
 04/10/15, 09:00,   3.9,  99,  10.7,  13.1,  15.0,   0.0,  0.48, 
 04/10/15, 10:00,   4.9,  99,  10.7,  13.0,  14.9,   0.0,  1.35, 
 04/10/15, 11:00,   6.1,  99,  11.0,  12.9,  14.8,   0.0,  2.21, 
 04/10/15, 12:00,   6.8,  89,  11.4,  12.8,  14.9,   0.0,  1.36, 
 04/10/15, 13:00,   7.4,  83,  11.7,  12.8,  14.9,   0.0,  1.54, 
 04/10/15, 14:00,   9.6,  80,  12.0,  12.8,  14.9,   0.0,  2.33, 
 04/10/15, 15:00,   8.5,  84,  12.4,  12.8,  14.8,   0.0,  1.90, 
 04/10/15, 16:00,   8.4,  84,  12.4,  12.8,  14.8,   0.0,  1.18, 
 04/10/15, 17:00,   7.6,  90,  12.3,  12.9,  14.8,   0.0,  0.45, 
 04/10/15, 18:00,   5.3,  99,  12.0,  12.9,  14.7,   0.0,  0.01, 
 04/10/15, 19:00,   4.7,  99,  11.9,  13.0,  14.7,   0.0,  0.00, 
 04/10/15, 20:00,   5.0,  99,  11.7,  13.0,  14.7,   0.0,  0.00, 
 04/10/15, 21:00,   4.6,  99,  11.4,  12.9,  14.6,   0.0,  0.00, 
 04/10/15, 22:00,   4.3,  99,  11.2,  12.9,  14.6,   0.0,  0.00, 
 04/10/15, 23:00,   4.7,  99,  11.0,  12.8,  14.6,   0.0,  0.00, 
 04/10/16, 00:00,   7.4,  81,  10.7,  12.8,  14.6,   0.0,  0.00, 
 04/10/16, 01:00,   6.5,  86,  10.6,  12.7,  14.6,   0.0,  0.00, 